TIANWANG 1A (TW-1A)
1 40928U 15051D   19243.34697917  .00002246  00000-0  56204-4 0  9995
2 40928  97.1416 273.0166 0011746 157.2031  34.0566 15.41076400220518
LAPAN A2
1 40931U 15052B   19242.36317133  .00000635  00000-0 -55967-6 0  9998
2 40931   5.9987 258.3974 0012410 101.0379 259.1372 14.76612221212022
LQSAT
1 40958U 15057A   19243.19550784  .00000013  00000-0  97111-5 0  9990
2 40958  97.8935 310.3863 0018308  10.0997 350.0575 14.73086989209628
CHUBUSAT 2
1 41338U 16012B   19242.81637274  .00000253  00000-0  12954-4 0  9990
2 41338  31.0040  40.0469 0013566 107.4980 252.7139 15.00170583193903
CHUBUSAT 3
1 41339U 16012C   19243.44262750  .00000230  00000-0  11119-4 0  9991
2 41339  31.0121  34.0584 0013930 118.5940 241.6020 15.00345106193999
OUFTI-1
1 41458U 16025C   19242.81493014 +.00001665 +00000-0 +87505-4 0  9991
2 41458 098.1009 333.3781 0167454 111.1004 250.8215 15.05954105183576
E-STAR-2
1 41459U 16025D   19243.44706602  .00001438  00000-0  76573-4 0  9993
2 41459  98.1035 333.6653 0169007 110.5820 251.3607 15.05594049183648
AAUSAT 4
1 41460U 16025E   19243.19709339  .00002692  00000-0  13689-3 0  9998
2 41460  98.0959 334.8268 0158242 103.3309 258.5620 15.07531465183740
NUSAT 1
1 41557U 16033B   19243.49054656  .00001161  00000-0  46051-4 0  9992
2 41557  97.4168 330.5624 0014840  42.7600 317.4790 15.27330354181350
BEESAT 4
1 41619U 16040W   19243.22385760  .00001261  00000-0  56072-4 0  9998
2 41619  97.3617 304.0590 0012837 121.0867 239.1631 15.23250466165059
PRATHAM
1 41783U 16059A   19243.39602536  .00000058  00000-0  20370-4 0  9996
2 41783  98.0613 301.3266 0034318 150.3666 209.9490 14.63006117156328
ALSAT 1N
1 41789U 16059G   19243.39013451  .00000019  00000-0  12673-4 0  9998
2 41789  98.0640 303.4764 0029396 139.6037 220.7356 14.64257432156435
NAYIF 1
1 42017U 17008BX  19243.22446319  .00001287  00000-0  53390-4 0  9992
2 42017  97.3979 309.5453 0004491 269.8720  90.2003 15.25662788141135
MAX VALIER SAT
1 42778U 17036P   19243.16054831  .00000628  00000-0  30415-4 0  9995
2 42778  97.3484 299.1866 0011403 333.8000  26.2658 15.22101257121416
